Location: Arleux
(50.3632°N, 2.8721°E)
Time: 04:38:30
(UTC+00:00)

ATLAS 5 CENTAUR R/B - Pass Details

Date: 15 December 2019
Orbit: 550 x 1109 km, 63.4° (Epoch: 20 January)

Event Time Altitude Azimuth Distance (km) Brightness Sun altitude
Exits shadow 06:15:40 12° 326° (NW) 2,059 3.7 -12.8°
Maximum altitude 06:18:50 21° 9° (N) 1,719 3.7 -12.3°
Drops below altitude 10° 06:23:03 10° 57° (ENE) 2,484 5.1 -11.7°
Sets 06:26:23 0° 73° (ENE) 3,537 6.3 -11.2°
